#timestamp,LO_Frequency,Hit,StdDev 
1701990015.1,286046995.5,N
1701990016.0,286046995.5,N
1701990035.8,286046999.6,N
1701990055.7,286046996.7,N
1701990075.5,286046999.1,N
1701990095.3,286046999.3,N
1701990115.2,286046997.2,N
1701990135.0,286046996.8,N
1701990135.9,286046996.8,N
1701990155.8,286046999.1,N
1701990175.6,286046999.6,N
1701990195.4,286046997.9,N
1701990215.3,286046997.8,N
1701990235.1,286046998.0,N
1701990255.8,286046999.1,N
1701990275.7,286046998.8,N
1701990295.5,286046998.4,N
1701990315.3,286047000.7,N
1701990335.2,286047001.0,N
1701990355.0,286047001.7,N
1701990355.9,286047001.7,N
1701990375.8,286046998.9,N
1701990395.6,286047002.4,N
1701990415.4,286047000.4,N
1701990435.3,286046999.0,N
1701990455.1,286046999.2,N
1701990475.9,286046999.4,N
1701990495.7,286046998.7,N
1701990515.5,286046998.4,N
1701990535.4,286046998.3,N
1701990555.2,286047000.6,N
1701990575.0,286047000.5,N
1701990575.9,286047000.5,N
1701990595.8,286047000.1,N
1701990615.6,286047002.1,N
1701990635.5,286047002.6,N
1701990655.3,286047002.1,N
1701990675.1,286047002.6,N
1701990695.9,286047003.3,N
1701990715.7,286047001.9,N
1701990735.5,286047001.6,N
1701990755.4,286047002.5,N
1701990775.2,286047000.2,N
1701990795.1,286047002.3,N
1701990796.0,286047002.3,N
1701990815.8,286046999.7,N
1701990835.6,286047000.7,N
1701990855.5,286046999.4,N
1701990875.3,286046999.0,N
1701990895.1,286046999.2,N
1701990915.9,286046998.4,N
1701990935.7,286047000.3,N
1701990955.6,286047000.9,N
1701990975.4,286047002.6,N
1701990995.2,286047001.9,N
1701991015.1,286047002.4,N
1701991016.0,286047002.4,N
1701991035.8,286047002.5,N
1701991055.6,286046999.8,N
1701991075.5,286047000.9,N
1701991095.3,286047000.6,N
1701991115.2,286046998.9,N
1701991135.9,286046998.3,N
1701991155.7,286046999.3,N
1701991175.6,286047000.3,N
1701991195.4,286047000.2,N
1701991215.2,286047002.2,N
1701991235.1,286047001.4,N
1701991236.0,286047001.4,N
1701991255.8,286047001.3,N
1701991275.7,286047002.6,N
1701991295.5,286046999.9,N
1701991315.3,286047000.2,N
1701991335.2,286046999.7,N
1701991355.0,286046999.7,N
1701991355.9,286046999.7,N
1701991375.8,286047003.6,N
1701991395.6,286046999.9,N
1701991415.4,286047001.4,N
1701991435.3,286047001.6,N
1701991455.1,286047004.3,Y
1701991475.8,286047002.3,P
1701991495.7,286047000.3,N
1701991515.5,286047001.0,N
1701991535.4,286046999.0,N
1701991555.2,286046998.2,N
1701991575.0,286047002.4,N
1701991575.9,286047002.4,N
1701991595.8,286047000.8,N
1701991615.6,286047002.8,N
1701991635.4,286047001.5,N
1701991655.3,286047003.8,N
1701991675.1,286047002.0,N
1701991695.9,286047002.7,N
1701991715.7,286047000.2,N
1701991735.5,286047002.1,N
1701991755.4,286047001.7,N
1701991775.2,286046999.8,N
1701991795.0,286047001.9,N
1701991795.9,286047001.9,N
1701991815.8,286047002.4,N
1701991835.6,286047000.1,N
1701991855.5,286047001.2,N
1701991875.3,286047000.0,N
1701991895.1,286047001.2,N
1701991915.9,286046999.7,N
1701991935.7,286047002.1,N
1701991955.5,286047002.1,N
1701991975.4,286047002.7,N
1701991995.2,286047001.7,N
1701992015.1,286047003.6,N
1701992016.0,286047003.6,N
1701992035.8,286047002.5,N
1701992055.6,286047001.9,N
1701992075.5,286047000.0,N
1701992095.3,286047000.1,N
1701992115.1,286047002.0,N
1701992135.9,286047000.2,N
1701992155.7,286046999.9,N
1701992175.6,286047000.5,N
1701992195.4,286047002.8,N
1701992215.2,286047001.6,N
1701992235.1,286047003.9,Y
1701992236.0,286047003.9,P
1701992255.8,286047000.4,N
1701992275.7,286046999.9,N
1701992295.5,286047002.3,N
1701992315.3,286046999.7,N
1701992335.2,286047002.6,N
1701992355.9,286047002.2,N
1701992375.7,286047000.0,N
1701992395.6,286047002.0,N
1701992415.4,286047000.4,N
1701992435.3,286047000.4,N
1701992455.1,286046999.9,N
1701992456.0,286046999.9,N
1701992475.8,286047000.3,N
1701992495.7,286047002.0,N
1701992515.5,286046999.8,N
1701992535.4,286047003.9,Y
1701992555.2,286047000.1,P
1701992575.0,286047000.7,N
1701992575.9,286047000.7,N
1701992595.8,286046998.5,Y
1701992615.6,286046998.6,P
1701992635.5,286047002.2,N
1701992655.3,286046999.9,N
1701992675.1,286047000.7,N
1701992695.9,286046998.3,N
1701992715.7,286046996.9,N
1701992735.5,286046999.4,N
1701992755.4,286046996.5,N
1701992775.2,286046997.0,N
1701992795.1,286046997.6,N
1701992796.0,286046997.6,N
1701992815.8,286046999.6,N
1701992835.6,286046997.0,N
1701992855.5,286046998.7,N
1701992875.3,286046998.3,N
1701992895.1,286046998.2,N
1701992915.9,286047001.2,N
1701992935.7,286046999.5,N
1701992955.6,286046996.9,N
1701992975.4,286046999.0,N
1701992995.2,286046996.9,N
1701993015.1,286046996.5,N
1701993016.0,286046996.5,N
1701993035.8,286046998.3,N
1701993055.6,286046999.4,N
1701993075.5,286046997.7,N
1701993095.3,286046997.0,N
1701993115.1,286046998.7,N
1701993135.9,286046998.2,N
1701993155.7,286046998.9,N
1701993175.6,286046998.7,N
1701993195.4,286046998.9,N
1701993215.2,286046999.4,N
1701993235.1,286046998.5,N
1701993236.0,286046998.5,N
1701993255.8,286046998.2,N
1701993275.6,286046998.3,N
1701993295.5,286046999.0,N
1701993315.3,286046998.8,N
1701993335.2,286047001.0,N
1701993355.9,286046998.6,N
1701993375.7,286046998.6,N
1701993395.6,286047001.2,N
1701993415.4,286047000.7,N
1701993435.2,286047000.1,N
1701993455.1,286047001.0,N
1701993456.0,286047001.0,N
1701993475.8,286046998.3,N
1701993495.7,286047001.0,N
1701993515.5,286047002.5,N
1701993535.3,286047002.7,N
1701993555.2,286047002.6,N
1701993575.9,286047000.6,N
1701993595.7,286047002.6,N
